Location: Unspecified
(0.0000°N, 0.0000°E)
Time: 01:01:06
(UTC+00:00)

Transit 2A - All Passes

Search period start: 20 July 2019 00:00
Search period end: 30 July 2019 00:00
Orbit: 594 x 964 km, 66.7° (Epoch: 19 July)

Date Brightness Start Highest point End Pass type
(mag) Time Alt. Az. Time Alt. Az. Time Alt. Az.
20 Jul - 03:47:50 10° N 03:52:13 57° ENE 03:56:26 10° SSE visible
20 Jul - 14:39:43 10° SE 14:43:11 15° ESE 14:46:42 10° ENE daylight
20 Jul - 16:20:13 10° SW 16:26:09 48° WNW 16:32:15 10° N daylight
21 Jul - 03:14:14 10° N 03:18:09 30° ENE 03:21:55 10° SE night (unlit)
21 Jul - 15:45:53 10° SSW 15:52:04 77° WNW 15:58:26 10° NNE daylight
22 Jul - 02:41:11 10° NNE 02:44:02 17° ENE 02:46:49 10° ESE night (unlit)
22 Jul - 04:23:51 10° WNW 04:26:53 18° WSW 04:29:53 10° SSW night (unlit)
22 Jul - 15:11:52 10° SSW 15:18:00 69° ESE 15:24:20 10° NNE daylight
22 Jul - 17:00:29 10° WNW 17:01:08 10° WNW 17:01:48 10° WNW daylight
23 Jul - 03:48:52 10° NW 03:52:51 33° WSW 03:56:43 10° S night (unlit)
23 Jul - 14:38:07 10° S 14:43:57 43° ESE 14:49:56 10° NE daylight
23 Jul - 16:23:00 10° WSW 16:27:01 18° WNW 16:31:03 10° NNW daylight
24 Jul - 03:14:26 10° NNW 03:18:48 64° WSW 03:23:03 10° SSE night (unlit)
24 Jul - 14:04:44 10° SSE 14:09:53 28° ESE 14:15:09 10° NE daylight
24 Jul - 15:47:41 10° SW 15:52:53 28° WNW 15:58:11 10° NNW daylight
25 Jul - 02:40:22 10° NNW 02:44:45 66° ENE 02:49:00 10° SSE night (unlit)
25 Jul - 13:31:54 10° SSE 13:35:49 17° ESE 13:39:47 10° ENE daylight
25 Jul - 15:12:55 10° SW 15:18:48 44° WNW 15:24:47 10° N daylight
26 Jul - 02:06:40 10° N 02:10:41 34° ENE 02:14:35 10° SE night (unlit)
26 Jul - 14:38:31 10° SSW 14:44:43 70° WNW 14:51:03 10° NNE daylight
27 Jul - 01:33:28 10° NNE 01:36:35 19° ENE 01:39:39 10° ESE night (unlit)
27 Jul - 03:16:44 10° WNW 03:19:26 16° WSW 03:22:06 10° SSW night (unlit)
27 Jul - 14:04:25 10° SSW 14:10:39 76° ESE 14:17:00 10° NNE daylight
28 Jul - 01:02:17 10° ENE 01:02:29 10° ENE 01:02:40 10° ENE night (unlit)
28 Jul - 02:41:35 10° NW 02:45:22 29° WSW 02:49:07 10° S night (unlit)
28 Jul - 13:30:37 10° S 13:36:35 48° ESE 13:42:40 10° NE daylight
28 Jul - 15:16:02 10° WSW 15:19:39 16° WNW 15:23:17 10° NW daylight
29 Jul - 02:07:02 10° NNW 02:11:19 55° WSW 02:15:31 10° S night (unlit)
29 Jul - 12:57:09 10° S 13:02:30 31° ESE 13:07:59 10° NE daylight
29 Jul - 14:40:29 10° WSW 14:45:32 25° WNW 14:50:38 10° NNW daylight
